User: anonymous
Location: Unspecified
(0.0000°N, 0.0000°E)
Time: 06:48:16
(UTC+02:00)
Language:

SJ-6B - Orbit

View from above orbital plane
View from above orbital plane
View from above satellite
View from above satellite

Ground track
Ground track

The orbit data is extracted from the following two-line orbital elements,

1 28415U 04035C   14293.75251377  .00005839  00000-0  42555-3 0  3250
2 28415 097.8020 299.1963 0057348 164.9390 195.3559 15.02806353552604
Epoch (UTC): 20 October 2014 18:03:37
Eccentricity: 0.0057348
inclination: 97.8020°
perigee height: 518 km
apogee height: 598 km
right ascension of ascending node: 299.1963°
argument of perigee: 164.9390°
revolutions per day: 15.02806353
mean anomaly at epoch: 195.3559°
orbit number at epoch: 55260

The dashed part of the orbit path shows where the satellite is in the earth's shadow,  

DLR